PDA6003 LGSK-UKBB

Flight info

Callsign PDA6003
Flight time 1h 56m
Altitude 37000
Route IBIDI DCT NIKTI DCT SOMOV DCT POGAV/K0839F370 N180 SULUM
Aircraft A321/M-SDE3FGHIJ4RWY/LB1

Departure

Time 2026-05-05 16:10
Airport Skiathos Island National Airport (LGSK)

Arrival

Time 2026-05-05 18:07
Airport Boryspil International Airport (UKBB)
Time Latitude Longitude Altitude Speed Heading
2026-05-05 15:50 39.17914 23.50235 50 ft 0 kts 283°
2026-05-05 16:01 39.17913 23.50238 52 ft 2 kts 283°
2026-05-05 16:01 39.17909 23.50258 49 ft 2 kts 292°
2026-05-05 16:01 39.17902 23.50277 43 ft 2 kts 303°
2026-05-05 16:01 39.17892 23.50294 41 ft 2 kts 325°
2026-05-05 16:02 39.17877 23.50304 42 ft 2 kts 354°
2026-05-05 16:02 39.17861 23.50303 38 ft 2 kts 14°
2026-05-05 16:02 39.17854 23.50301 38 ft 0 kts 18°
2026-05-05 16:07 39.17866 23.50306 38 ft 4 kts 18°
2026-05-05 16:08 39.17896 23.50323 41 ft 9 kts 36°
2026-05-05 16:08 39.17937 23.50416 42 ft 12 kts 65°
2026-05-05 16:08 39.18004 23.50488 45 ft 19 kts 19°
2026-05-05 16:08 39.18168 23.50561 51 ft 25 kts 19°
2026-05-05 16:09 39.18316 23.50627 54 ft 20 kts 19°
2026-05-05 16:09 39.18403 23.50693 57 ft 8 kts 20°
2026-05-05 16:09 39.18413 23.50672 62 ft 1 kts 246°
2026-05-05 16:09 39.18397 23.50664 54 ft 0 kts 201°
2026-05-05 16:10 39.18063 23.50514 43 ft 98 kts 199°
2026-05-05 16:10 39.17167 23.50111 55 ft 169 kts 200°
2026-05-05 16:10 39.16026 23.49601 870 ft 174 kts 199°
2026-05-05 16:11 39.14900 23.49102 1709 ft 169 kts 200°
2026-05-05 16:11 39.12126 23.46077 2863 ft 194 kts 269°
2026-05-05 16:12 39.12442 23.44412 3368 ft 195 kts 304°
2026-05-05 16:12 39.14835 23.43206 4388 ft 203 kts
2026-05-05 16:13 39.19102 23.44325 5873 ft 217 kts 11°
2026-05-05 16:13 39.20662 23.44732 6063 ft 241 kts 11°
2026-05-05 16:13 39.22384 23.45180 6335 ft 262 kts 11°
2026-05-05 16:14 39.26042 23.46133 7615 ft 271 kts 11°
2026-05-05 16:14 39.29742 23.47095 9069 ft 274 kts 11°
2026-05-05 16:15 39.33498 23.48071 10436 ft 277 kts 11°
2026-05-05 16:15 39.37294 23.49048 11672 ft 282 kts 10°
2026-05-05 16:16 39.41185 23.50057 12930 ft 288 kts 10°
2026-05-05 16:16 39.45291 23.51175 13420 ft 320 kts 11°
2026-05-05 16:17 39.49874 23.52483 13692 ft 354 kts 11°
2026-05-05 16:17 39.52330 23.53181 13818 ft 368 kts 11°
2026-05-05 16:18 39.57431 23.54629 14396 ft 384 kts 11°
2026-05-05 16:18 39.60077 23.55377 14517 ft 393 kts 11°
2026-05-05 16:18 39.65543 23.56925 14761 ft 410 kts 11°
2026-05-05 16:19 39.68357 23.57728 14992 ft 416 kts 11°
2026-05-05 16:19 39.71193 23.58539 15346 ft 418 kts 11°
2026-05-05 16:19 39.76894 23.60169 16162 ft 421 kts 11°
2026-05-05 16:20 39.82606 23.61795 16928 ft 424 kts 11°
2026-05-05 16:20 39.88399 23.63448 17699 ft 428 kts 11°
2026-05-05 16:21 39.94249 23.65119 18406 ft 432 kts 11°
2026-05-05 16:22 40.03112 23.67657 19362 ft 437 kts 11°
2026-05-05 16:22 40.09077 23.69363 20008 ft 440 kts 11°
2026-05-05 16:23 40.15084 23.71091 20589 ft 443 kts 11°
2026-05-05 16:23 40.18058 23.71949 20881 ft 445 kts 11°
2026-05-05 16:23 40.24109 23.73688 21405 ft 447 kts 10°
2026-05-05 16:24 40.27155 23.74567 21647 ft 448 kts 10°
2026-05-05 16:24 40.30192 23.75448 22026 ft 446 kts 10°
2026-05-05 16:24 40.36226 23.77205 22822 ft 441 kts 10°
2026-05-05 16:25 40.39222 23.78077 23230 ft 439 kts 10°
2026-05-05 16:25 40.45163 23.79806 23974 ft 436 kts
2026-05-05 16:25 40.48124 23.80665 24320 ft 434 kts
2026-05-05 16:26 40.54001 23.82373 25024 ft 431 kts
2026-05-05 16:26 40.59835 23.84074 25742 ft 428 kts
2026-05-05 16:27 40.62734 23.84926 26111 ft 426 kts
2026-05-05 16:27 40.65619 23.85774 26486 ft 424 kts
2026-05-05 16:27 40.68464 23.86608 26860 ft 423 kts
2026-05-05 16:27 40.71317 23.87441 27242 ft 421 kts
2026-05-05 16:28 40.74185 23.88278 27634 ft 420 kts
2026-05-05 16:28 40.77033 23.89111 28032 ft 418 kts
2026-05-05 16:28 40.79871 23.89942 28312 ft 419 kts
2026-05-05 16:28 40.82726 23.90781 28583 ft 420 kts
2026-05-05 16:29 40.85588 23.91622 28859 ft 421 kts
2026-05-05 16:29 40.88048 23.92348 29110 ft 422 kts
2026-05-05 16:29 40.90899 23.93190 29381 ft 422 kts
2026-05-05 16:29 40.93779 23.94041 29667 ft 422 kts
2026-05-05 16:30 40.96649 23.94889 29955 ft 422 kts
2026-05-05 16:30 40.99510 23.95732 30206 ft 422 kts
2026-05-05 16:30 41.02372 23.96574 30443 ft 421 kts
2026-05-05 16:30 41.04269 23.97133 30604 ft 421 kts
2026-05-05 16:31 41.07130 23.97979 30853 ft 421 kts
2026-05-05 16:31 41.09986 23.98829 31101 ft 420 kts
2026-05-05 16:31 41.12840 23.99681 31356 ft 420 kts
2026-05-05 16:31 41.16619 24.00801 31686 ft 419 kts
2026-05-05 16:32 41.18546 24.01371 31854 ft 419 kts
2026-05-05 16:32 41.21383 24.02211 32115 ft 418 kts
2026-05-05 16:32 41.24222 24.03055 32374 ft 418 kts
2026-05-05 16:32 41.27027 24.03889 32638 ft 418 kts
2026-05-05 16:33 41.29862 24.04733 32902 ft 417 kts
2026-05-05 16:33 41.32690 24.05576 33172 ft 417 kts
2026-05-05 16:33 41.35519 24.06422 33449 ft 416 kts
2026-05-05 16:33 41.38344 24.07270 33729 ft 415 kts
2026-05-05 16:34 41.41159 24.08116 34005 ft 414 kts
2026-05-05 16:34 41.43959 24.08960 34248 ft 412 kts
2026-05-05 16:34 41.46757 24.09805 34492 ft 411 kts
2026-05-05 16:34 41.49546 24.10641 34700 ft 411 kts
2026-05-05 16:35 41.52347 24.11478 34819 ft 413 kts
2026-05-05 16:35 41.55140 24.12312 34944 ft 414 kts
2026-05-05 16:35 41.57949 24.13186 35240 ft 411 kts
2026-05-05 16:35 41.60702 24.14085 35726 ft 404 kts 10°
2026-05-05 16:36 41.63434 24.14994 35879 ft 406 kts 10°
2026-05-05 16:36 41.66181 24.15914 36005 ft 407 kts 10°
2026-05-05 16:36 41.68893 24.16818 36136 ft 408 kts 10°
2026-05-05 16:36 41.71657 24.17732 36261 ft 409 kts 10°
2026-05-05 16:37 41.74424 24.18644 36390 ft 410 kts 10°
2026-05-05 16:37 41.77201 24.19558 36522 ft 411 kts 10°
2026-05-05 16:37 41.79983 24.20474 36663 ft 411 kts 10°
2026-05-05 16:37 41.82765 24.21388 36797 ft 412 kts 10°
2026-05-05 16:38 41.85546 24.22299 36953 ft 411 kts 10°
2026-05-05 16:38 41.88330 24.23211 37032 ft 413 kts 10°
2026-05-05 16:38 41.93962 24.25068 37035 ft 420 kts 10°
2026-05-05 16:39 41.99673 24.26966 37025 ft 425 kts 11°
2026-05-05 16:39 42.05419 24.28871 37019 ft 430 kts 11°
2026-05-05 16:40 42.11246 24.30806 37019 ft 433 kts 11°
2026-05-05 16:40 42.17133 24.32765 37016 ft 437 kts 11°
2026-05-05 16:41 42.23055 24.34739 37013 ft 440 kts 11°
2026-05-05 16:41 42.29017 24.36730 37013 ft 442 kts 11°
2026-05-05 16:42 42.34995 24.38730 37013 ft 443 kts 11°
2026-05-05 16:42 42.40988 24.40745 37014 ft 444 kts 11°
2026-05-05 16:43 42.46993 24.42758 37018 ft 444 kts 11°
2026-05-05 16:43 42.52999 24.44783 37037 ft 445 kts 11°
2026-05-05 16:44 42.59010 24.46812 37041 ft 445 kts 11°
2026-05-05 16:44 42.64985 24.48830 37045 ft 446 kts 11°
2026-05-05 16:45 42.71004 24.50868 37049 ft 446 kts 11°
2026-05-05 16:45 42.77029 24.52902 37046 ft 446 kts 11°
2026-05-05 16:46 42.83042 24.54947 37038 ft 446 kts 12°
2026-05-05 16:46 42.89074 24.57016 37056 ft 447 kts 12°
2026-05-05 16:47 42.95108 24.59083 37052 ft 447 kts 12°
2026-05-05 16:47 43.01138 24.61140 37028 ft 447 kts 12°
2026-05-05 16:48 43.07175 24.63205 37038 ft 447 kts 12°
2026-05-05 16:48 43.13214 24.65274 37033 ft 447 kts 12°
2026-05-05 16:49 43.19259 24.67362 37027 ft 448 kts 12°
2026-05-05 16:49 43.25297 24.69446 37032 ft 448 kts 12°
2026-05-05 16:50 43.31306 24.71516 37029 ft 448 kts 12°
2026-05-05 16:50 43.37359 24.73612 37022 ft 448 kts 12°
2026-05-05 16:51 43.43402 24.75718 37029 ft 448 kts 12°
2026-05-05 16:51 43.49448 24.77821 37022 ft 448 kts 12°
2026-05-05 16:52 43.55497 24.79919 37018 ft 448 kts 12°
2026-05-05 16:52 43.61533 24.82021 37021 ft 448 kts 13°
2026-05-05 16:53 43.67572 24.84161 37000 ft 448 kts 15°
2026-05-05 16:53 43.73166 24.88000 37007 ft 453 kts 32°
2026-05-05 16:54 43.78352 24.92980 37016 ft 454 kts 32°
2026-05-05 16:54 43.83547 24.97956 37013 ft 454 kts 32°
2026-05-05 16:55 43.88749 25.02945 37011 ft 455 kts 32°
2026-05-05 16:55 43.93951 25.07936 37017 ft 455 kts 32°
2026-05-05 16:56 43.99158 25.12942 37009 ft 455 kts 32°
2026-05-05 16:56 44.04355 25.17963 37009 ft 455 kts 32°
2026-05-05 16:57 44.09545 25.22998 37008 ft 455 kts 32°
2026-05-05 16:57 44.14730 25.28032 37013 ft 455 kts 32°
2026-05-05 16:58 44.19917 25.33086 37015 ft 455 kts 33°
2026-05-05 16:58 44.25076 25.38111 37018 ft 455 kts 32°
2026-05-05 16:59 44.30264 25.43166 37021 ft 455 kts 33°
2026-05-05 16:59 44.35447 25.48233 37016 ft 455 kts 33°
2026-05-05 17:00 44.40637 25.53326 37015 ft 456 kts 33°
2026-05-05 17:00 44.45837 25.58436 37022 ft 457 kts 33°
2026-05-05 17:01 44.51044 25.63565 37021 ft 457 kts 33°
2026-05-05 17:01 44.56244 25.68705 37021 ft 458 kts 33°
2026-05-05 17:02 44.61448 25.73857 37029 ft 458 kts 33°
2026-05-05 17:02 44.66625 25.78997 37025 ft 458 kts 33°
2026-05-05 17:03 44.71835 25.84169 37024 ft 459 kts 33°
2026-05-05 17:03 44.77046 25.89357 37023 ft 458 kts 33°
2026-05-05 17:04 44.82254 25.94556 37026 ft 458 kts 34°
2026-05-05 17:04 44.87448 25.99762 37021 ft 458 kts 34°
2026-05-05 17:05 44.92639 26.04971 37023 ft 458 kts 34°
2026-05-05 17:05 44.97830 26.10188 37025 ft 458 kts 34°
2026-05-05 17:06 45.02987 26.15382 37028 ft 458 kts 34°
2026-05-05 17:06 45.08169 26.20615 37030 ft 457 kts 34°
2026-05-05 17:07 45.13337 26.25848 37024 ft 457 kts 34°
2026-05-05 17:07 45.18501 26.31085 37023 ft 456 kts 34°
2026-05-05 17:08 45.23667 26.36334 37028 ft 456 kts 34°
2026-05-05 17:08 45.28836 26.41599 37036 ft 456 kts 34°
2026-05-05 17:09 45.33993 26.46877 37027 ft 457 kts 34°
2026-05-05 17:09 45.39165 26.52164 37028 ft 458 kts 34°
2026-05-05 17:10 45.44331 26.57457 37025 ft 458 kts 34°
2026-05-05 17:10 45.49492 26.62776 37037 ft 458 kts 34°
2026-05-05 17:11 45.54623 26.68070 37024 ft 458 kts 34°
2026-05-05 17:11 45.59789 26.73412 37027 ft 458 kts 34°
2026-05-05 17:12 45.64950 26.78760 37021 ft 458 kts 34°
2026-05-05 17:12 45.70123 26.84123 37009 ft 459 kts 34°
2026-05-05 17:13 45.75293 26.89494 37011 ft 459 kts 34°
2026-05-05 17:13 45.80452 26.94881 37024 ft 459 kts 35°
2026-05-05 17:14 45.85616 27.00285 37028 ft 460 kts 35°
2026-05-05 17:14 45.90789 27.05711 37011 ft 460 kts 35°
2026-05-05 17:15 45.95962 27.11136 37017 ft 460 kts 35°
2026-05-05 17:15 46.01126 27.16576 37021 ft 460 kts 35°
2026-05-05 17:16 46.06260 27.21999 37021 ft 460 kts 35°
2026-05-05 17:16 46.11422 27.27461 37023 ft 460 kts 35°
2026-05-05 17:17 46.16581 27.32922 37026 ft 460 kts 36°
2026-05-05 17:17 46.20870 27.37482 37024 ft 460 kts 36°
2026-05-05 17:18 46.26017 27.42976 37024 ft 460 kts 36°
2026-05-05 17:18 46.31163 27.48465 37018 ft 460 kts 36°
2026-05-05 17:19 46.36315 27.53970 37015 ft 460 kts 36°
2026-05-05 17:19 46.41442 27.59472 37017 ft 460 kts 36°
2026-05-05 17:20 46.46578 27.65005 37023 ft 460 kts 36°
2026-05-05 17:20 46.51721 27.70542 37012 ft 460 kts 36°
2026-05-05 17:21 46.56865 27.76094 37019 ft 460 kts 36°
2026-05-05 17:22 46.64547 27.84421 37018 ft 460 kts 36°
2026-05-05 17:22 46.69676 27.89994 37020 ft 460 kts 36°
2026-05-05 17:23 46.74805 27.95585 37009 ft 460 kts 36°
2026-05-05 17:23 46.79931 28.01179 37014 ft 460 kts 36°
2026-05-05 17:24 46.85048 28.06783 37018 ft 460 kts 36°
2026-05-05 17:24 46.90160 28.12394 37017 ft 460 kts 36°
2026-05-05 17:25 46.95274 28.18027 37012 ft 459 kts 36°
2026-05-05 17:25 47.00380 28.23667 37014 ft 459 kts 36°
2026-05-05 17:26 47.05482 28.29320 37007 ft 459 kts 36°
2026-05-05 17:26 47.10579 28.34965 37009 ft 459 kts 36°
2026-05-05 17:27 47.15646 28.40575 37006 ft 459 kts 37°
2026-05-05 17:27 47.20739 28.46242 37003 ft 459 kts 37°
2026-05-05 17:28 47.25822 28.51924 37003 ft 459 kts 37°
2026-05-05 17:28 47.30907 28.57620 37005 ft 459 kts 37°
2026-05-05 17:29 47.35993 28.63322 37001 ft 459 kts 37°
2026-05-05 17:29 47.41068 28.69034 37003 ft 459 kts 37°
2026-05-05 17:30 47.46143 28.74762 37000 ft 459 kts 37°
2026-05-05 17:30 47.51219 28.80504 37002 ft 459 kts 37°
2026-05-05 17:31 47.56292 28.86253 36998 ft 459 kts 37°
2026-05-05 17:31 47.61366 28.92009 37003 ft 459 kts 37°
2026-05-05 17:32 47.66433 28.97783 37003 ft 459 kts 37°
2026-05-05 17:32 47.71462 29.03543 36999 ft 459 kts 37°
2026-05-05 17:33 47.76522 29.09346 37000 ft 459 kts 37°
2026-05-05 17:33 47.81583 29.15152 37005 ft 460 kts 37°
2026-05-05 17:34 47.86648 29.20974 37002 ft 460 kts 37°
2026-05-05 17:34 47.92036 29.26058 36836 ft 455 kts 28°
2026-05-05 17:34 47.94802 29.28304 36974 ft 453 kts 29°
2026-05-05 17:35 47.97563 29.30610 36964 ft 456 kts 30°
2026-05-05 17:35 48.03087 29.35324 36971 ft 458 kts 30°
2026-05-05 17:36 48.08639 29.40041 36980 ft 460 kts 29°
2026-05-05 17:36 48.14185 29.44704 36992 ft 460 kts 29°
2026-05-05 17:37 48.19780 29.49409 36990 ft 461 kts 29°
2026-05-05 17:37 48.25332 29.54097 36992 ft 461 kts 29°
2026-05-05 17:38 48.30917 29.58836 36985 ft 461 kts 29°
2026-05-05 17:38 48.36503 29.63590 36981 ft 461 kts 29°
2026-05-05 17:39 48.42077 29.68349 36989 ft 462 kts 30°
2026-05-05 17:39 48.47649 29.73120 36990 ft 462 kts 30°
2026-05-05 17:40 48.53257 29.77933 36989 ft 462 kts 30°
2026-05-05 17:40 48.58833 29.82727 36985 ft 461 kts 30°
2026-05-05 17:41 48.64415 29.87525 36978 ft 461 kts 30°
2026-05-05 17:41 48.69992 29.92332 36982 ft 461 kts 30°
2026-05-05 17:42 48.75563 29.97171 36976 ft 461 kts 30°
2026-05-05 17:42 48.81083 30.01964 36141 ft 457 kts 30°
2026-05-05 17:42 48.83848 30.04365 35270 ft 458 kts 30°
2026-05-05 17:43 48.86610 30.06768 34520 ft 456 kts 30°
2026-05-05 17:43 48.89351 30.09156 34091 ft 454 kts 30°
2026-05-05 17:43 48.92095 30.11552 34089 ft 455 kts 30°
2026-05-05 17:43 48.94839 30.13948 34302 ft 454 kts 30°
2026-05-05 17:44 48.97578 30.16343 34424 ft 455 kts 30°
2026-05-05 17:44 49.00327 30.18746 34542 ft 455 kts 30°
2026-05-05 17:44 49.03076 30.21148 34637 ft 457 kts 30°
2026-05-05 17:44 49.05834 30.23562 34740 ft 457 kts 30°
2026-05-05 17:45 49.08597 30.25986 34824 ft 458 kts 30°
2026-05-05 17:45 49.14132 30.30870 34989 ft 458 kts 30°
2026-05-05 17:45 49.16894 30.33319 34420 ft 458 kts 30°
2026-05-05 17:46 49.19648 30.35759 33889 ft 456 kts 30°
2026-05-05 17:46 49.25118 30.40607 34075 ft 453 kts 30°
2026-05-05 17:47 49.30608 30.45483 33294 ft 457 kts 30°
2026-05-05 17:47 49.33351 30.47921 32621 ft 457 kts 30°
2026-05-05 17:47 49.36086 30.50353 31966 ft 459 kts 30°
2026-05-05 17:47 49.38853 30.52810 31201 ft 459 kts 30°
2026-05-05 17:48 49.41619 30.55263 30455 ft 461 kts 30°
2026-05-05 17:48 49.44390 30.57719 29668 ft 457 kts 30°
2026-05-05 17:48 49.47134 30.60146 28819 ft 452 kts 30°
2026-05-05 17:48 49.49847 30.62542 27996 ft 448 kts 30°
2026-05-05 17:49 49.52542 30.64917 27199 ft 445 kts 30°
2026-05-05 17:49 49.55221 30.67275 26415 ft 442 kts 30°
2026-05-05 17:49 49.57883 30.69616 25656 ft 439 kts 31°
2026-05-05 17:49 49.60524 30.71933 24923 ft 436 kts 30°
2026-05-05 17:50 49.63153 30.74237 24193 ft 433 kts 30°
2026-05-05 17:50 49.65760 30.76516 23488 ft 429 kts 30°
2026-05-05 17:50 49.68351 30.78780 22676 ft 426 kts 30°
2026-05-05 17:50 49.70914 30.81029 21866 ft 422 kts 30°
2026-05-05 17:51 49.73454 30.83268 21065 ft 418 kts 30°
2026-05-05 17:51 49.75967 30.85496 20317 ft 415 kts 30°
2026-05-05 17:51 49.78454 30.87724 19578 ft 411 kts 30°
2026-05-05 17:51 49.80884 30.89916 18861 ft 407 kts 31°
2026-05-05 17:52 49.83312 30.92118 18147 ft 402 kts 30°
2026-05-05 17:52 49.85697 30.94291 17342 ft 391 kts 31°
2026-05-05 17:52 49.87997 30.96391 16556 ft 377 kts 31°
2026-05-05 17:52 49.90227 30.98433 15781 ft 366 kts 31°
2026-05-05 17:53 49.92411 31.00371 15041 ft 356 kts 25°
2026-05-05 17:53 49.94745 31.01462 14315 ft 349 kts
2026-05-05 17:53 49.97148 31.01642 13588 ft 342 kts
2026-05-05 17:53 49.99507 31.01736 12800 ft 337 kts
2026-05-05 17:54 50.01831 31.01823 12037 ft 331 kts
2026-05-05 17:54 50.04119 31.01905 11270 ft 326 kts 360°
2026-05-05 17:54 50.06373 31.01984 10530 ft 322 kts 359°
2026-05-05 17:54 50.08567 31.02062 9797 ft 309 kts 359°
2026-05-05 17:55 50.10677 31.02137 9141 ft 295 kts 359°
2026-05-05 17:55 50.12666 31.02213 8830 ft 282 kts 359°
2026-05-05 17:55 50.14629 31.02288 8580 ft 280 kts 359°
2026-05-05 17:55 50.16570 31.02361 8324 ft 279 kts 359°
2026-05-05 17:56 50.18478 31.02432 8061 ft 278 kts 359°
2026-05-05 17:56 50.20413 31.02501 7820 ft 278 kts 359°
2026-05-05 17:56 50.22341 31.02571 7575 ft 277 kts 359°
2026-05-05 17:56 50.24273 31.02641 7375 ft 277 kts 359°
2026-05-05 17:57 50.26170 31.02712 7186 ft 268 kts 359°
2026-05-05 17:57 50.27998 31.02782 6991 ft 258 kts 359°
2026-05-05 17:57 50.29761 31.02849 6797 ft 249 kts 358°
2026-05-05 17:57 50.31472 31.02912 6605 ft 244 kts 358°
2026-05-05 17:58 50.33171 31.02974 6413 ft 243 kts 358°
2026-05-05 17:58 50.34862 31.03036 6217 ft 243 kts 358°
2026-05-05 17:58 50.36549 31.03099 6007 ft 243 kts 358°
2026-05-05 17:58 50.38240 31.03163 5812 ft 243 kts 358°
2026-05-05 17:59 50.39932 31.03225 5602 ft 244 kts 359°
2026-05-05 17:59 50.41634 31.03286 5404 ft 245 kts 359°
2026-05-05 17:59 50.43335 31.03350 5204 ft 245 kts 359°
2026-05-05 17:59 50.45038 31.03416 5009 ft 244 kts 359°
2026-05-05 18:00 50.46735 31.03480 4810 ft 244 kts 359°
2026-05-05 18:00 50.48427 31.03548 4612 ft 243 kts 360°
2026-05-05 18:00 50.50121 31.03658 4420 ft 244 kts
2026-05-05 18:00 50.51244 31.03744 4285 ft 244 kts
2026-05-05 18:01 50.53507 31.03790 4021 ft 241 kts 345°
2026-05-05 18:01 50.54494 31.03126 3891 ft 230 kts 318°
2026-05-05 18:01 50.55309 31.01138 3697 ft 213 kts 276°
2026-05-05 18:01 50.55366 30.98118 3429 ft 208 kts 269°
2026-05-05 18:02 50.55379 30.96602 3296 ft 204 kts 269°
2026-05-05 18:02 50.55313 30.94404 3098 ft 197 kts 254°
2026-05-05 18:02 50.54429 30.92054 2830 ft 189 kts 217°
2026-05-05 18:02 50.53695 30.91473 3081 ft 168 kts 192°
2026-05-05 18:03 50.52480 30.91612 3161 ft 176 kts 173°
2026-05-05 18:03 50.51265 30.91707 3085 ft 174 kts 183°
2026-05-05 18:03 50.50054 30.91660 3007 ft 174 kts 185°
2026-05-05 18:03 50.48847 30.91585 2839 ft 173 kts 185°
2026-05-05 18:04 50.47672 30.91502 2638 ft 169 kts 185°
2026-05-05 18:04 50.46534 30.91421 2424 ft 159 kts 185°
2026-05-05 18:04 50.45448 30.91341 2229 ft 153 kts 185°
2026-05-05 18:04 50.44391 30.91263 2036 ft 151 kts 185°
2026-05-05 18:05 50.43348 30.91186 1838 ft 149 kts 185°
2026-05-05 18:05 50.42327 30.91110 1670 ft 142 kts 185°
2026-05-05 18:05 50.41351 30.91038 1460 ft 139 kts 184°
2026-05-05 18:05 50.40384 30.90967 1280 ft 138 kts 184°
2026-05-05 18:06 50.39429 30.90890 1109 ft 138 kts 184°
2026-05-05 18:06 50.38798 30.90834 986 ft 136 kts 184°
2026-05-05 18:06 50.37533 30.90780 763 ft 136 kts 183°
2026-05-05 18:06 50.36584 30.90692 587 ft 136 kts 184°
2026-05-05 18:07 50.35642 30.90618 425 ft 131 kts 181°
2026-05-05 18:07 50.34860 30.90561 424 ft 86 kts 182°
2026-05-05 18:07 50.34439 30.90529 416 ft 36 kts 183°
2026-05-05 18:07 50.34222 30.90463 416 ft 21 kts 201°
2026-05-05 18:08 50.34100 30.90353 414 ft 21 kts 213°
2026-05-05 18:08 50.33998 30.90253 415 ft 16 kts 210°
2026-05-05 18:08 50.33904 30.90169 416 ft 16 kts 198°
2026-05-05 18:08 50.33799 30.90158 415 ft 15 kts 183°
2026-05-05 18:09 50.33696 30.90150 409 ft 15 kts 182°
2026-05-05 18:09 50.33596 30.90143 416 ft 14 kts 182°
2026-05-05 18:09 50.33515 30.90119 411 ft 11 kts 214°
2026-05-05 18:09 50.33496 30.90013 413 ft 10 kts 273°
2026-05-05 18:10 50.33500 30.89902 415 ft 10 kts 272°
2026-05-05 18:10 50.33539 30.89867 415 ft 6 kts 358°
2026-05-05 18:10 50.33563 30.89867 410 ft 2 kts
2026-05-05 18:10 50.33566 30.89867 412 ft 1 kts
2026-05-05 18:11 50.33567 30.89867 412 ft 0 kts